This demonstration page uses our WeatherBlox Daily Observations layout. Learn more.

Left ArrowRight Arrow

Hourly Observations for November 23, 2020

Temp ( °F °C ) Dew Point ( °F °C ) Humidity (%) Winds ( mph kmh ) Pressure ( in mb ) Visibility ( mi km ) Precip ( " mm )
12:15 am 00:15 Clear 28 -2.3 16 -8.7 62 62 SSE 7 11 30.37 1028 10 16 N/A
12:35 am 00:35 Clear 29 -1.9 16 -8.7 60 60 SSE 7 11 30.35 1028 10 16 N/A
12:55 am 00:55 Clear 30 -1.3 17 -8.3 59 59 S 6 9 30.35 1028 10 16 N/A
1:15 am 01:15 Clear 30 -1.2 18 -8 60 60 SSE 6 9 30.34 1027 10 16 N/A
1:35 am 01:35 Partly Cloudy 29 -1.8 17 -8.1 62 62 S 3 6 30.34 1028 10 16 N/A
1:55 am 01:55 Mostly Cloudy 29 -1.6 19 -7 67 67 SSE 5 7 30.32 1027 10 16 N/A
2:15 am 02:15 Cloudy 33 0.7 21 -6.1 61 61 SSE 6 9 30.29 1026 10 16 N/A
2:35 am 02:35 Cloudy 36 2.2 21 -6.2 54 54 S 6 9 30.28 1026 10 16 N/A
2:55 am 02:55 Cloudy 37 2.6 21 -6.3 52 52 SSE 5 7 30.26 1025 10 16 N/A
3:15 am 03:15 Cloudy 37 2.7 21 -6.2 52 52 SSE 8 13 30.26 1025 10 16 N/A
3:35 am 03:35 Cloudy 38 3.5 22 -5.6 52 52 SSE 9 15 30.23 1024 10 16 N/A
3:55 am 03:55 Cloudy 38 3.5 22 -5.6 52 52 S 10 17 30.22 1023 10 16 N/A
4:15 am 04:15 Cloudy 38 3.6 22 -5.3 53 53 S 12 19 30.22 1023 10 16 N/A
4:35 am 04:35 Cloudy 38 3.5 23 -5.2 53 53 SSE 13 20 30.20 1023 10 16 N/A
4:55 am 04:55 Cloudy 39 3.7 23 -4.9 54 54 SSE 15 24 30.19 1022 10 16 N/A
5:15 am 05:15 Cloudy 38 3.6 24 -4.6 55 55 S 12 19 30.19 1022 10 16 N/A
5:35 am 05:35 Cloudy 38 3.6 24 -4.4 56 56 SSE 12 19 30.18 1022 10 16 N/A
5:55 am 05:55 Cloudy 39 3.8 24 -4.4 55 55 SSE 12 19 30.18 1022 10 16 N/A
6:15 am 06:15 Cloudy with Light Rain 39 3.8 24 -4.4 55 55 SSE 15 24 30.17 1022 10 16 N/A
6:35 am 06:35 Cloudy 39 4 26 -3.6 58 58 SSE 16 26 30.17 1022 10 16 N/A
6:55 am 06:55 Cloudy with Light Rain 38 3.3 29 -1.9 69 69 SSE 16 26 30.15 1021 10 16 N/A
7:15 am 07:15 Cloudy 38 3.2 30 -1 74 74 SSE 14 22 30.15 1021 10 16 N/A
7:35 am 07:35 Cloudy 38 3.3 31 -0.7 75 75 SSE 16 26 30.15 1021 10 16 N/A
7:55 am 07:55 Cloudy 38 3.5 32 -0.2 77 77 SSE 14 22 30.15 1021 10 16 N/A
8:15 am 08:15 Cloudy 39 4 32 undefined 75 75 SSE 18 30 30.14 1021 10 16 N/A
8:35 am 08:35 Cloudy 40 4.2 33 0.3 76 76 SSE 20 31 30.13 1020 10 16 N/A
8:55 am 08:55 Cloudy 40 4.5 32 0.2 74 74 SSE 20 31 30.12 1020 10 16 N/A
9:15 am 09:15 Cloudy 41 4.8 33 0.4 73 73 SSE 21 33 30.11 1020 10 16 N/A
9:35 am 09:35 Cloudy 41 4.8 33 0.5 74 74 SSE 22 35 30.10 1019 10 16 N/A
9:55 am 09:55 Cloudy 41 4.8 33 0.6 75 75 SSE 17 28 30.09 1019 10 16 N/A
10:15 am 10:15 Cloudy 41 5 32 0.2 71 71 SSE 26 43 30.07 1018 10 16 N/A
10:35 am 10:35 Cloudy 41 4.8 33 0.7 75 75 SSE 28 44 30.06 1018 10 16 N/A
10:55 am 10:55 Cloudy 41 5 34 1 76 76 SSE 25 41 30.06 1018 10 16 N/A
11:15 am 11:15 Cloudy 41 5 34 1.2 77 77 SSE 25 41 30.05 1018 10 16 N/A
11:35 am 11:35 Cloudy 41 5.2 34 1.2 76 76 SSE 22 35 30.04 1017 10 16 N/A
11:55 am 11:55 Cloudy 42 5.5 34 1.3 75 75 SSE 24 39 30.02 1017 10 16 N/A
12:15 pm 12:15 Cloudy 42 5.5 35 1.6 76 76 SSE 23 37 30.00 1016 10 16 N/A
12:35 pm 12:35 Cloudy 42 5.4 36 2 79 79 SSE 21 33 29.98 1015 10 16 N/A
12:55 pm 12:55 Cloudy 42 5.5 37 2.5 81 81 SSE 20 31 29.97 1015 10 16 N/A
1:15 pm 13:15 Cloudy 42 5.5 37 2.9 84 84 SSE 18 30 29.96 1015 10 16 N/A
1:35 pm 13:35 Cloudy 42 5.6 38 3.4 86 86 S 22 35 29.95 1014 10 16 N/A
1:55 pm 13:55 Cloudy 42 5.6 38 3.6 87 87 SSE 20 31 29.94 1014 10 16 N/A
2:15 pm 14:15 Cloudy 42 5.6 38 3.6 87 87 SSE 18 30 29.93 1014 7 11 N/A
2:35 pm 14:35 Cloudy with Mist and Fog 41 5.2 39 3.8 91 91 SSE 18 30 29.93 1013 4 6 N/A
2:55 pm 14:55 Cloudy with Mist and Fog 41 5.1 39 4 93 93 SSE 20 31 29.91 1013 5 8 N/A
3:15 pm 15:15 Cloudy 41 5.1 39 3.8 91 91 SSE 18 30 29.91 1013 7 11 N/A
3:35 pm 15:35 Cloudy 41 5 38 3.6 91 91 SSE 16 26 29.91 1013 7 11 N/A
3:55 pm 15:55 Cloudy 41 5 38 3.5 90 90 SSE 20 31 29.90 1012 7 11 N/A
4:15 pm 16:15 Cloudy 41 5 38 3.5 90 90 SSE 22 35 29.89 1012 10 16 N/A
4:35 pm 16:35 Cloudy 41 5 38 3.5 90 90 SSE 21 33 29.89 1012 10 16 N/A
4:55 pm 16:55 Cloudy 41 5 38 3.5 90 90 SE 20 31 29.89 1012 10 16 N/A
5:15 pm 17:15 Cloudy 41 4.8 38 3.3 90 90 SE 17 28 29.88 1012 10 16 N/A
5:35 pm 17:35 Cloudy 41 4.9 38 3.4 90 90 SSE 20 31 29.89 1012 10 16 N/A
5:55 pm 17:55 Cloudy 41 4.8 38 3.3 90 90 SSE 18 30 29.88 1012 10 16 N/A
6:15 pm 18:15 Cloudy 41 4.8 38 3.5 91 91 SE 21 33 29.88 1012 10 16 N/A
6:35 pm 18:35 Cloudy 41 4.8 38 3.5 91 91 SE 17 28 29.88 1012 10 16 N/A
6:55 pm 18:55 Cloudy 41 5 38 3.6 91 91 SE 21 33 29.88 1012 10 16 N/A
7:15 pm 19:15 Cloudy 41 5 39 3.8 92 92 SE 20 31 29.87 1011 10 16 N/A
7:35 pm 19:35 Cloudy 41 5 39 3.7 91 91 SE 20 31 29.87 1011 10 16 N/A
7:55 pm 19:55 Cloudy 41 5.1 39 4 93 93 SE 20 31 29.87 1011 10 16 N/A
8:15 pm 20:15 Cloudy 41 5.2 39 4 92 92 SE 15 24 29.87 1011 10 16 N/A
8:35 pm 20:35 Cloudy 42 5.5 40 4.3 92 92 SE 15 24 29.85 1011 10 16 N/A
8:55 pm 20:55 Cloudy 42 5.5 40 4.5 93 93 SSE 20 31 29.85 1011 7 11 N/A
9:15 pm 21:15 Cloudy 42 5.5 40 4.6 94 94 SSE 17 28 29.84 1011 7 11 N/A
9:35 pm 21:35 Cloudy with Mist and Fog 42 5.6 40 4.7 94 94 SSE 17 28 29.84 1011 5 8 N/A
9:55 pm 21:55 Cloudy with Mist and Fog 42 5.8 41 5 95 95 SSE 21 33 29.84 1011 5 8 N/A
10:15 pm 22:15 Cloudy 43 6 41 5.1 94 94 SSE 17 28 29.83 1010 7 11 N/A
10:35 pm 22:35 Cloudy with Mist and Fog 43 6 41 5.2 95 95 SSE 17 28 29.83 1010 5 8 N/A
10:55 pm 22:55 Cloudy with Mist and Fog 43 6 41 5.2 95 95 SSE 16 26 29.83 1010 5 8 N/A
11:15 pm 23:15 Cloudy with Mist and Fog 43 6.1 42 5.5 96 96 SE 16 26 29.81 1009 5 8 N/A
11:35 pm 23:35 Cloudy with Mist and Fog 43 6.2 42 5.5 95 95 SE 16 26 29.80 1009 4 6 N/A
11:55 pm 23:55 Cloudy with Mist and Fog 43 6.2 42 5.6 96 96 SSE 17 28 29.80 1009 3 5 N/A

Powered by AerisWeather